| time (UTC) | temp F | wind direction | speed MPH | gust MPH | rain 1hr in | rain 24hr in | rain mn in | humidity % | barometer mb |
| 20260509002557 | 60 | 35 | 7.0 | 13.0 | 0.00 | 0.00 | 0.00 | 54 | 1027.9 |
| 20260509002053 | 60 | 352 | 4.0 | 13.0 | 0.00 | 0.00 | 0.00 | 55 | 1027.8 |
| 20260509001554 | 60 | 34 | 4.0 | 13.0 | 0.00 | 0.00 | 0.00 | 55 | 1027.8 |
| 20260509001053 | 60 | 43 | 6.0 | 13.0 | 0.00 | 0.00 | 0.00 | 56 | 1027.7 |
| 20260509000552 | 59 | 42 | 5.0 | 9.0 | 0.00 | 0.00 | 0.00 | 56 | 1027.7 |
| 20260509000109 | 59 | 69 | 4.0 | 11.0 | 0.00 | 0.00 | 0.00 | 56 | 1027.6 |
| 20260508235553 | 59 | 36 | 5.0 | 11.0 | 0.00 | 0.00 | 0.00 | 56 | 1027.7 |
| 20260508235050 | 59 | 98 | 4.0 | 9.0 | 0.00 | 0.00 | 0.00 | 57 | 1027.6 |
| 20260508234608 | 59 | 38 | 4.0 | 8.0 | 0.00 | 0.00 | 0.00 | 57 | 1027.6 |
| 20260508234053 | 58 | 71 | 3.0 | 9.0 | 0.00 | 0.00 | 0.00 | 57 | 1027.6 |
| 20260508233553 | 58 | 51 | 5.0 | 9.0 | 0.00 | 0.00 | 0.00 | 57 | 1027.5 |
| 20260508233058 | 58 | 63 | 4.0 | 8.0 | 0.00 | 0.00 | 0.00 | 58 | 1027.4 |
| 20260508232554 | 58 | 61 | 3.0 | 8.0 | 0.00 | 0.00 | 0.00 | 58 | 1027.4 |
| 20260508232053 | 58 | 60 | 4.0 | 7.0 | 0.00 | 0.00 | 0.00 | 57 | 1027.5 |
| 20260508231552 | 58 | 55 | 4.0 | 7.0 | 0.00 | 0.00 | 0.00 | 58 | 1027.4 |
| 20260508231052 | 58 | 56 | 4.0 | 9.0 | 0.00 | 0.00 | 0.00 | 58 | 1027.3 |
| 20260508230552 | 58 | 44 | 4.0 | 9.0 | 0.00 | 0.00 | 0.00 | 58 | 1027.4 |
| 20260508230101 | 58 | 50 | 4.0 | 9.0 | 0.00 | 0.00 | 0.00 | 58 | 1027.3 |
| 20260508225553 | 58 | 67 | 4.0 | 8.0 | 0.00 | 0.00 | 0.00 | 57 | 1027.3 |
| 20260508225053 | 58 | 34 | 3.0 | 9.0 | 0.00 | 0.00 | 0.00 | 57 | 1027.4 |
| 20260508224557 | 58 | 46 | 3.0 | 9.0 | 0.00 | 0.00 | 0.00 | 57 | 1027.2 |
| 20260508224055 | 58 | 57 | 4.0 | 8.0 | 0.00 | 0.00 | 0.00 | 57 | 1027.2 |
| 20260508223557 | 58 | 61 | 3.0 | 7.0 | 0.00 | 0.00 | 0.00 | 56 | 1027.2 |
| 20260508223054 | 58 | 57 | 3.0 | 10.0 | 0.00 | 0.00 | 0.00 | 56 | 1027.1 |
| 20260508222553 | 58 | 29 | 3.0 | 12.0 | 0.00 | 0.00 | 0.00 | 56 | 1027.2 |
| 20260508222052 | 59 | 61 | 6.0 | 12.0 | 0.00 | 0.00 | 0.00 | 56 | 1027.0 |
| 20260508221602 | 59 | 71 | 4.0 | 10.0 | 0.00 | 0.00 | 0.00 | 56 | 1027.1 |
| 20260508221131 | 59 | 53 | 4.0 | 11.0 | 0.00 | 0.00 | 0.00 | 56 | 1027.1 |
| 20260508220554 | 59 | 26 | 4.0 | 11.0 | 0.00 | 0.00 | 0.00 | 55 | 1027.1 |
| 20260508220054 | 59 | 35 | 5.0 | 11.0 | 0.00 | 0.00 | 0.00 | 55 | 1027.0 |
| 20260508215553 | 59 | 38 | 3.0 | 10.0 | 0.00 | 0.00 | 0.00 | 55 | 1026.9 |
| 20260508215053 | 59 | 31 | 3.0 | 9.0 | 0.00 | 0.00 | 0.00 | 55 | 1027.0 |
| 20260508214607 | 59 | 30 | 4.0 | 9.0 | 0.00 | 0.00 | 0.00 | 55 | 1027.0 |
| 20260508214054 | 59 | 37 | 5.0 | 11.0 | 0.00 | 0.00 | 0.00 | 55 | 1027.0 |
| 20260508213550 | 59 | 78 | 4.0 | 11.0 | 0.00 | 0.00 | 0.00 | 54 | 1027.0 |
| 20260508213101 | 60 | 17 | 4.0 | 10.0 | 0.00 | 0.00 | 0.00 | 54 | 1026.8 |
| 20260508212558 | 60 | 42 | 4.0 | 12.0 | 0.00 | 0.00 | 0.00 | 54 | 1026.7 |
| 20260508212056 | 60 | 51 | 4.0 | 12.0 | 0.00 | 0.00 | 0.00 | 53 | 1026.7 |
| 20260508211559 | 60 | 63 | 5.0 | 13.0 | 0.00 | 0.00 | 0.00 | 53 | 1026.5 |
| 20260508211053 | 60 | 68 | 6.0 | 13.0 | 0.00 | 0.00 | 0.00 | 53 | 1026.4 |
| 20260508210555 | 60 | 63 | 6.0 | 12.0 | 0.00 | 0.00 | 0.00 | 53 | 1026.4 |
| 20260508210053 | 60 | 63 | 7.0 | 13.0 | 0.00 | 0.00 | 0.00 | 53 | 1026.4 |
| 20260508205553 | 60 | 61 | 6.0 | 13.0 | 0.00 | 0.00 | 0.00 | 53 | 1026.4 |
| 20260508205053 | 60 | 58 | 4.0 | 10.0 | 0.00 | 0.00 | 0.00 | 53 | 1026.5 |
| 20260508204602 | 60 | 40 | 6.0 | 10.0 | 0.00 | 0.00 | 0.00 | 53 | 1026.3 |
| 20260508204056 | 60 | 51 | 4.0 | 10.0 | 0.00 | 0.00 | 0.00 | 53 | 1026.4 |
| 20260508203553 | 60 | 53 | 3.0 | 10.0 | 0.00 | 0.00 | 0.00 | 53 | 1026.3 |
| 20260508203058 | 60 | 54 | 5.0 | 10.0 | 0.00 | 0.00 | 0.00 | 53 | 1026.3 |
| 20260508202553 | 60 | 65 | 5.0 | 10.0 | 0.00 | 0.00 | 0.00 | 53 | 1026.4 |
| 20260508202053 | 60 | 51 | 4.0 | 10.0 | 0.00 | 0.00 | 0.00 | 53 | 1026.3 |
| 20260508201608 | 60 | 69 | 4.0 | 10.0 | 0.00 | 0.00 | 0.00 | 53 | 1026.3 |
| 20260508201055 | 60 | 44 | 5.0 | 11.0 | 0.00 | 0.00 | 0.00 | 53 | 1026.1 |
| 20260508200553 | 60 | 112 | 5.0 | 12.0 | 0.00 | 0.00 | 0.00 | 53 | 1026.1 |
| 20260508200108 | 59 | 44 | 5.0 | 12.0 | 0.00 | 0.00 | 0.00 | 53 | 1026.0 |
| 20260508195553 | 59 | 78 | 6.0 | 12.0 | 0.00 | 0.00 | 0.00 | 54 | 1026.0 |
| 20260508195053 | 59 | 110 | 6.0 | 12.0 | 0.00 | 0.00 | 0.00 | 54 | 1025.9 |
| 20260508194552 | 59 | 60 | 5.0 | 11.0 | 0.00 | 0.00 | 0.00 | 54 | 1025.9 |
| 20260508194054 | 59 | 71 | 6.0 | 12.0 | 0.00 | 0.00 | 0.00 | 54 | 1025.9 |
| 20260508193553 | 59 | 43 | 6.0 | 12.0 | 0.00 | 0.00 | 0.00 | 54 | 1025.8 |
| 20260508193057 | 59 | 63 | 5.0 | 11.0 | 0.00 | 0.00 | 0.00 | 54 | 1025.9 |
| 20260508192553 | 59 | 48 | 5.0 | 11.0 | 0.00 | 0.00 | 0.00 | 54 | 1025.9 |
| 20260508192054 | 60 | 61 | 5.0 | 11.0 | 0.00 | 0.00 | 0.00 | 53 | 1026.0 |
| 20260508191552 | 60 | 49 | 5.0 | 11.0 | 0.00 | 0.00 | 0.00 | 53 | 1025.9 |
| 20260508191053 | 60 | 55 | 4.0 | 10.0 | 0.00 | 0.00 | 0.00 | 53 | 1025.9 |
| 20260508190554 | 60 | 26 | 5.0 | 11.0 | 0.00 | 0.00 | 0.00 | 53 | 1026.0 |
| 20260508185552 | 60 | 40 | 5.0 | 10.0 | 0.00 | 0.00 | 0.00 | 53 | 1025.8 |
| 20260508185053 | 60 | 65 | 4.0 | 11.0 | 0.00 | 0.00 | 0.00 | 53 | 1025.9 |
| 20260508184552 | 60 | 102 | 5.0 | 11.0 | 0.00 | 0.00 | 0.00 | 53 | 1025.9 |
| 20260508184057 | 60 | 63 | 4.0 | 11.0 | 0.00 | 0.00 | 0.00 | 52 | 1025.9 |
| 20260508183552 | 60 | 74 | 6.0 | 11.0 | 0.00 | 0.00 | 0.00 | 52 | 1025.9 |
| 20260508183059 | 60 | 72 | 5.0 | 9.0 | 0.00 | 0.00 | 0.00 | 52 | 1025.9 |
| 20260508182553 | 60 | 46 | 4.0 | 10.0 | 0.00 | 0.00 | 0.00 | 52 | 1026.0 |
| 20260508182052 | 61 | 69 | 4.0 | 10.0 | 0.00 | 0.00 | 0.00 | 51 | 1026.0 |
| 20260508181613 | 61 | 81 | 5.0 | 13.0 | 0.00 | 0.00 | 0.00 | 51 | 1025.9 |
| 20260508181055 | 61 | 30 | 4.0 | 13.0 | 0.00 | 0.00 | 0.00 | 51 | 1025.9 |
| 20260508180553 | 61 | 45 | 6.0 | 11.0 | 0.00 | 0.00 | 0.00 | 51 | 1025.9 |
| 20260508180113 | 61 | 39 | 6.0 | 11.0 | 0.00 | 0.00 | 0.00 | 50 | 1025.8 |
| 20260508175553 | 61 | 55 | 4.0 | 14.0 | 0.00 | 0.00 | 0.00 | 50 | 1026.0 |
| 20260508175053 | 61 | 26 | 5.0 | 14.0 | 0.00 | 0.00 | 0.00 | 50 | 1026.0 |
| 20260508174607 | 61 | 58 | 5.0 | 13.0 | 0.00 | 0.00 | 0.00 | 49 | 1025.9 |
| 20260508174057 | 62 | 55 | 6.0 | 13.0 | 0.00 | 0.00 | 0.00 | 50 | 1026.0 |
| 20260508173553 | 62 | 55 | 5.0 | 12.0 | 0.00 | 0.00 | 0.00 | 49 | 1026.0 |
| 20260508173057 | 62 | 80 | 5.0 | 12.0 | 0.00 | 0.00 | 0.00 | 49 | 1025.9 |
| 20260508172556 | 62 | 73 | 6.0 | 12.0 | 0.00 | 0.00 | 0.00 | 49 | 1025.8 |
| 20260508172054 | 62 | 78 | 5.0 | 14.0 | 0.00 | 0.00 | 0.00 | 49 | 1025.9 |
| 20260508171554 | 62 | 63 | 7.0 | 14.0 | 0.00 | 0.00 | 0.00 | 48 | 1025.9 |
| 20260508171052 | 62 | 45 | 5.0 | 10.0 | 0.00 | 0.00 | 0.00 | 48 | 1026.0 |
| 20260508170554 | 62 | 111 | 5.0 | 12.0 | 0.00 | 0.00 | 0.00 | 48 | 1025.9 |
| 20260508170059 | 62 | 134 | 4.0 | 12.0 | 0.00 | 0.00 | 0.00 | 48 | 1026.0 |
| 20260508165552 | 63 | 107 | 5.0 | 11.0 | 0.00 | 0.00 | 0.00 | 48 | 1026.0 |
| 20260508165053 | 63 | 17 | 6.0 | 11.0 | 0.00 | 0.00 | 0.00 | 48 | 1026.0 |
| 20260508164606 | 63 | 67 | 5.0 | 11.0 | 0.00 | 0.00 | 0.00 | 48 | 1026.1 |
| 20260508164053 | 62 | 99 | 4.0 | 10.0 | 0.00 | 0.00 | 0.00 | 48 | 1026.1 |
| 20260508163555 | 62 | 59 | 3.0 | 11.0 | 0.00 | 0.00 | 0.00 | 48 | 1026.1 |
| 20260508163053 | 62 | 66 | 4.0 | 11.0 | 0.00 | 0.00 | 0.00 | 48 | 1026.1 |
| 20260508162553 | 62 | 12 | 3.0 | 6.0 | 0.00 | 0.00 | 0.00 | 48 | 1025.9 |
| 20260508162051 | 63 | 65 | 2.0 | 6.0 | 0.00 | 0.00 | 0.00 | 47 | 1026.0 |
| 20260508161556 | 63 | 82 | 2.0 | 10.0 | 0.00 | 0.00 | 0.00 | 47 | 1025.9 |
| 20260508161053 | 63 | 76 | 4.0 | 10.0 | 0.00 | 0.00 | 0.00 | 46 | 1025.8 |
| 20260508160552 | 63 | 42 | 2.0 | 9.0 | 0.00 | 0.00 | 0.00 | 46 | 1025.9 |
| 20260508160055 | 63 | 53 | 4.0 | 9.0 | 0.00 | 0.00 | 0.00 | 46 | 1025.8 |
| 20260508155551 | 63 | 57 | 3.0 | 9.0 | 0.00 | 0.00 | 0.00 | 45 | 1026.0 |
| 20260508155053 | 64 | 61 | 3.0 | 9.0 | 0.00 | 0.00 | 0.00 | 45 | 1025.8 |
| 20260508154601 | 64 | 93 | 4.0 | 9.0 | 0.00 | 0.00 | 0.00 | 45 | 1025.9 |
| 20260508154055 | 64 | 84 | 2.0 | 8.0 | 0.00 | 0.00 | 0.00 | 45 | 1025.9 |
| 20260508153553 | 63 | 86 | 3.0 | 8.0 | 0.00 | 0.00 | 0.00 | 45 | 1025.9 |
| 20260508153053 | 63 | 86 | 2.0 | 8.0 | 0.00 | 0.00 | 0.00 | 45 | 1025.9 |
| 20260508152556 | 63 | 64 | 3.0 | 8.0 | 0.00 | 0.00 | 0.00 | 45 | 1025.8 |
| 20260508152054 | 63 | 67 | 3.0 | 8.0 | 0.00 | 0.00 | 0.00 | 45 | 1025.8 |
| 20260508151604 | 63 | 71 | 2.0 | 7.0 | 0.00 | 0.00 | 0.00 | 45 | 1025.8 |
| 20260508151052 | 63 | 32 | 3.0 | 8.0 | 0.00 | 0.00 | 0.00 | 45 | 1025.9 |
| 20260508150554 | 63 | 107 | 3.0 | 8.0 | 0.00 | 0.00 | 0.00 | 46 | 1025.8 |
| 20260508150055 | 63 | 65 | 2.0 | 7.0 | 0.00 | 0.00 | 0.00 | 46 | 1025.9 |
| 20260508145553 | 63 | 94 | 3.0 | 8.0 | 0.00 | 0.00 | 0.00 | 46 | 1025.9 |
| 20260508145056 | 63 | 86 | 2.0 | 9.0 | 0.00 | 0.00 | 0.00 | 46 | 1026.0 |
| 20260508144553 | 63 | 90 | 3.0 | 9.0 | 0.00 | 0.00 | 0.00 | 46 | 1026.1 |
| 20260508144053 | 63 | 105 | 4.0 | 9.0 | 0.00 | 0.00 | 0.00 | 46 | 1025.9 |
| 20260508143553 | 63 | 105 | 3.0 | 9.0 | 0.00 | 0.00 | 0.00 | 46 | 1026.2 |
| 20260508143058 | 63 | 98 | 4.0 | 8.0 | 0.00 | 0.00 | 0.00 | 47 | 1026.1 |
| 20260508142552 | 63 | 95 | 3.0 | 8.0 | 0.00 | 0.00 | 0.00 | 47 | 1026.2 |
| 20260508142053 | 63 | 100 | 2.0 | 8.0 | 0.00 | 0.00 | 0.00 | 47 | 1026.2 |
| 20260508141600 | 63 | 101 | 3.0 | 7.0 | 0.00 | 0.00 | 0.00 | 48 | 1026.2 |
| 20260508141053 | 63 | 90 | 2.0 | 7.0 | 0.00 | 0.00 | 0.00 | 48 | 1026.2 |
| 20260508140558 | 63 | 91 | 3.0 | 7.0 | 0.00 | 0.00 | 0.00 | 48 | 1026.2 |
| 20260508140106 | 64 | 91 | 2.0 | 7.0 | 0.00 | 0.00 | 0.00 | 49 | 1026.3 |
| 20260508135555 | 64 | 90 | 3.0 | 7.0 | 0.00 | 0.00 | 0.00 | 49 | 1026.2 |
| 20260508135052 | 64 | 90 | 4.0 | 7.0 | 0.00 | 0.00 | 0.00 | 48 | 1026.1 |
| 20260508134553 | 64 | 94 | 3.0 | 8.0 | 0.00 | 0.00 | 0.00 | 49 | 1026.1 |
| 20260508134053 | 64 | 101 | 4.0 | 8.0 | 0.00 | 0.00 | 0.00 | 49 | 1026.1 |
| 20260508133553 | 64 | 92 | 5.0 | 8.0 | 0.00 | 0.00 | 0.00 | 49 | 1026.1 |
| 20260508133052 | 64 | 87 | 3.0 | 8.0 | 0.00 | 0.00 | 0.00 | 49 | 1026.2 |
| 20260508132553 | 64 | 89 | 3.0 | 8.0 | 0.00 | 0.00 | 0.00 | 49 | 1026.2 |
| 20260508132053 | 65 | 94 | 5.0 | 12.0 | 0.00 | 0.00 | 0.00 | 48 | 1026.2 |
| 20260508131558 | 65 | 73 | 4.0 | 12.0 | 0.00 | 0.00 | 0.00 | 48 | 1026.2 |
| 20260508131054 | 65 | 80 | 5.0 | 11.0 | 0.00 | 0.00 | 0.00 | 48 | 1026.1 |
| 20260508130556 | 65 | 94 | 6.0 | 11.0 | 0.00 | 0.00 | 0.00 | 48 | 1026.0 |
| 20260508130052 | 65 | 92 | 6.0 | 11.0 | 0.00 | 0.00 | 0.00 | 48 | 1026.0 |
| 20260508125553 | 65 | 82 | 5.0 | 9.0 | 0.00 | 0.00 | 0.00 | 48 | 1026.0 |
| 20260508125052 | 65 | 90 | 5.0 | 9.0 | 0.00 | 0.00 | 0.00 | 48 | 1026.0 |
| 20260508124555 | 65 | 106 | 4.0 | 9.0 | 0.00 | 0.00 | 0.00 | 48 | 1026.0 |
| 20260508124052 | 65 | 94 | 5.0 | 9.0 | 0.00 | 0.00 | 0.00 | 48 | 1026.0 |
| 20260508123552 | 65 | 74 | 4.0 | 9.0 | 0.00 | 0.00 | 0.00 | 48 | 1025.9 |
| 20260508123054 | 65 | 78 | 3.0 | 9.0 | 0.00 | 0.00 | 0.00 | 48 | 1025.9 |
| 20260508122553 | 65 | 78 | 3.0 | 9.0 | 0.00 | 0.00 | 0.00 | 48 | 1025.9 |
| 20260508122053 | 65 | 78 | 3.0 | 8.0 | 0.00 | 0.00 | 0.00 | 48 | 1025.9 |
| 20260508121559 | 65 | 86 | 3.0 | 8.0 | 0.00 | 0.00 | 0.00 | 48 | 1025.8 |
| 20260508121057 | 65 | 85 | 2.0 | 7.0 | 0.00 | 0.00 | 0.00 | 48 | 1025.8 |
| 20260508120552 | 66 | 84 | 3.0 | 7.0 | 0.00 | 0.00 | 0.00 | 48 | 1025.9 |
| 20260508120101 | 65 | 84 | 3.0 | 7.0 | 0.00 | 0.00 | 0.00 | 48 | 1025.9 |
| 20260508115553 | 66 | 87 | 2.0 | 4.0 | 0.00 | 0.00 | 0.00 | 48 | 1025.8 |
| 20260508115052 | 66 | 88 | 2.0 | 4.0 | 0.00 | 0.00 | 0.00 | 48 | 1025.9 |
| 20260508114555 | 66 | 88 | 2.0 | 6.0 | 0.00 | 0.00 | 0.00 | 47 | 1025.9 |
| 20260508114053 | 67 | 88 | 2.0 | 9.0 | 0.00 | 0.00 | 0.00 | 47 | 1025.9 |
| 20260508113553 | 67 | 88 | 3.0 | 9.0 | 0.00 | 0.00 | 0.00 | 47 | 1025.9 |
| 20260508113057 | 67 | 86 | 4.0 | 9.0 | 0.00 | 0.00 | 0.00 | 46 | 1025.9 |
| 20260508112552 | 67 | 94 | 3.0 | 9.0 | 0.00 | 0.00 | 0.00 | 46 | 1025.9 |
| 20260508112052 | 67 | 96 | 4.0 | 9.0 | 0.00 | 0.00 | 0.00 | 46 | 1025.9 |
| 20260508111600 | 67 | 106 | 5.0 | 9.0 | 0.00 | 0.00 | 0.00 | 46 | 1025.9 |
| 20260508111054 | 67 | 95 | 3.0 | 7.0 | 0.00 | 0.00 | 0.00 | 47 | 1026.0 |
| 20260508110554 | 67 | 107 | 3.0 | 7.0 | 0.00 | 0.00 | 0.00 | 47 | 1025.8 |
| 20260508105556 | 67 | 108 | 2.0 | 6.0 | 0.00 | 0.00 | 0.00 | 46 | 1025.9 |
| 20260508105053 | 68 | 108 | 2.0 | 4.0 | 0.00 | 0.00 | 0.00 | 46 | 1025.9 |
| 20260508104551 | 68 | 109 | 2.0 | 4.0 | 0.00 | 0.00 | 0.00 | 45 | 1025.8 |
| 20260508104053 | 68 | 109 | 2.0 | 6.0 | 0.00 | 0.00 | 0.00 | 45 | 1025.9 |
| 20260508103553 | 68 | 109 | 2.0 | 8.0 | 0.00 | 0.00 | 0.00 | 44 | 1025.9 |
| 20260508103120 | 69 | 109 | 4.0 | 8.0 | 0.00 | 0.00 | 0.00 | 44 | 1025.8 |
| 20260508102552 | 69 | 72 | 3.0 | 8.0 | 0.00 | 0.00 | 0.00 | 44 | 1025.7 |
| 20260508102053 | 69 | 84 | 4.0 | 9.0 | 0.00 | 0.00 | 0.00 | 44 | 1025.7 |
| 20260508101605 | 69 | 57 | 4.0 | 11.0 | 0.00 | 0.00 | 0.00 | 43 | 1025.6 |
| 20260508101053 | 69 | 71 | 4.0 | 11.0 | 0.00 | 0.00 | 0.00 | 43 | 1025.6 |
| 20260508100553 | 69 | 92 | 6.0 | 10.0 | 0.00 | 0.00 | 0.00 | 43 | 1025.6 |
| 20260508100053 | 69 | 53 | 4.0 | 10.0 | 0.00 | 0.00 | 0.00 | 43 | 1025.5 |
| 20260508095554 | 70 | 98 | 5.0 | 10.0 | 0.00 | 0.00 | 0.00 | 43 | 1025.5 |
| 20260508095053 | 70 | 34 | 5.0 | 9.0 | 0.00 | 0.00 | 0.00 | 43 | 1025.3 |
| 20260508094607 | 70 | 118 | 3.0 | 9.0 | 0.00 | 0.00 | 0.00 | 43 | 1025.5 |
| 20260508094053 | 70 | 88 | 3.0 | 12.0 | 0.00 | 0.00 | 0.00 | 43 | 1025.4 |
| 20260508093553 | 70 | 107 | 5.0 | 12.0 | 0.00 | 0.00 | 0.00 | 42 | 1025.4 |
| 20260508093055 | 70 | 92 | 5.0 | 12.0 | 0.00 | 0.00 | 0.00 | 42 | 1025.3 |
| 20260508092553 | 71 | 113 | 4.0 | 9.0 | 0.00 | 0.00 | 0.00 | 42 | 1025.3 |
| 20260508092056 | 71 | 126 | 3.0 | 12.0 | 0.00 | 0.00 | 0.00 | 42 | 1025.2 |
| 20260508091550 | 71 | 109 | 6.0 | 14.0 | 0.00 | 0.00 | 0.00 | 41 | 1025.2 |
| 20260508091053 | 71 | 114 | 5.0 | 14.0 | 0.00 | 0.00 | 0.00 | 41 | 1025.2 |
| 20260508090553 | 71 | 85 | 7.0 | 14.0 | 0.00 | 0.00 | 0.00 | 41 | 1025.2 |
| 20260508090110 | 72 | 94 | 7.0 | 13.0 | 0.00 | 0.00 | 0.00 | 41 | 1025.2 |
| 20260508085553 | 72 | 98 | 5.0 | 13.0 | 0.00 | 0.00 | 0.00 | 42 | 1025.1 |
| 20260508085053 | 72 | 72 | 7.0 | 14.0 | 0.00 | 0.00 | 0.00 | 41 | 1025.1 |
| 20260508084555 | 72 | 28 | 7.0 | 15.0 | 0.00 | 0.00 | 0.00 | 41 | 1024.9 |
| 20260508084053 | 72 | 115 | 9.0 | 15.0 | 0.00 | 0.00 | 0.00 | 41 | 1024.9 |
| 20260508083554 | 72 | 125 | 7.0 | 14.0 | 0.00 | 0.00 | 0.00 | 41 | 1024.9 |
| 20260508083112 | 72 | 79 | 5.0 | 14.0 | 0.00 | 0.00 | 0.00 | 42 | 1024.8 |
| 20260508082553 | 73 | 87 | 6.0 | 14.0 | 0.00 | 0.00 | 0.00 | 42 | 1024.9 |
| 20260508082052 | 73 | 96 | 6.0 | 15.0 | 0.00 | 0.00 | 0.00 | 41 | 1025.0 |
| 20260508081557 | 73 | 61 | 8.0 | 16.0 | 0.00 | 0.00 | 0.00 | 41 | 1024.9 |
| 20260508081054 | 73 | 17 | 6.0 | 16.0 | 0.00 | 0.00 | 0.00 | 41 | 1025.0 |
| 20260508080553 | 73 | 87 | 8.0 | 16.0 | 0.00 | 0.00 | 0.00 | 41 | 1025.0 |
| 20260508080054 | 73 | 126 | 6.0 | 13.0 | 0.00 | 0.00 | 0.00 | 41 | 1025.0 |
| 20260508075555 | 73 | 120 | 5.0 | 13.0 | 0.00 | 0.00 | 0.00 | 41 | 1025.0 |
| 20260508075053 | 73 | 71 | 6.0 | 15.0 | 0.00 | 0.00 | 0.00 | 41 | 1025.1 |
| 20260508074555 | 73 | 71 | 6.0 | 17.0 | 0.00 | 0.00 | 0.00 | 41 | 1025.1 |
| 20260508074055 | 73 | 99 | 7.0 | 17.0 | 0.00 | 0.00 | 0.00 | 41 | 1025.0 |
| 20260508073553 | 73 | 113 | 6.0 | 13.0 | 0.00 | 0.00 | 0.00 | 41 | 1025.0 |
| 20260508073054 | 73 | 111 | 6.0 | 13.0 | 0.00 | 0.00 | 0.00 | 41 | 1025.0 |
| 20260508072552 | 73 | 61 | 6.0 | 13.0 | 0.00 | 0.00 | 0.00 | 40 | 1025.0 |
| 20260508072054 | 73 | 34 | 6.0 | 13.0 | 0.00 | 0.00 | 0.00 | 40 | 1025.0 |
| 20260508071552 | 73 | 48 | 7.0 | 13.0 | 0.00 | 0.00 | 0.00 | 40 | 1025.0 |
| 20260508071054 | 73 | 85 | 6.0 | 12.0 | 0.00 | 0.00 | 0.00 | 40 | 1024.9 |
| 20260508070551 | 73 | 86 | 6.0 | 15.0 | 0.00 | 0.00 | 0.00 | 40 | 1025.1 |
| 20260508070056 | 73 | 43 | 8.0 | 15.0 | 0.00 | 0.00 | 0.00 | 40 | 1025.2 |
| 20260508065553 | 73 | 103 | 5.0 | 12.0 | 0.00 | 0.00 | 0.00 | 41 | 1025.1 |
| 20260508065053 | 73 | 99 | 6.0 | 12.0 | 0.00 | 0.00 | 0.00 | 40 | 1025.1 |
| 20260508064556 | 73 | 58 | 5.0 | 11.0 | 0.00 | 0.00 | 0.00 | 41 | 1025.2 |
| 20260508064053 | 73 | 128 | 5.0 | 13.0 | 0.00 | 0.00 | 0.00 | 43 | 1025.1 |
| 20260508063553 | 73 | 84 | 6.0 | 14.0 | 0.00 | 0.00 | 0.00 | 43 | 1025.4 |
| 20260508063054 | 73 | 51 | 5.0 | 16.0 | 0.00 | 0.00 | 0.00 | 43 | 1025.3 |
| 20260508062552 | 73 | 24 | 9.0 | 16.0 | 0.00 | 0.00 | 0.00 | 43 | 1025.3 |
| 20260508062056 | 73 | 110 | 5.0 | 11.0 | 0.00 | 0.00 | 0.00 | 43 | 1025.3 |
| 20260508061556 | 73 | 127 | 5.0 | 12.0 | 0.00 | 0.00 | 0.00 | 44 | 1025.5 |
| 20260508061053 | 72 | 63 | 3.0 | 13.0 | 0.00 | 0.00 | 0.00 | 45 | 1025.5 |
| 20260508060553 | 72 | 78 | 6.0 | 14.0 | 0.00 | 0.00 | 0.00 | 44 | 1025.7 |
| 20260508060107 | 72 | 104 | 7.0 | 14.0 | 0.00 | 0.00 | 0.00 | 44 | 1025.7 |
| 20260508055552 | 72 | 95 | 7.0 | 14.0 | 0.00 | 0.00 | 0.00 | 45 | 1025.7 |
| 20260508055052 | 72 | 43 | 7.0 | 14.0 | 0.00 | 0.00 | 0.00 | 45 | 1025.8 |
| 20260508054604 | 72 | 124 | 6.0 | 15.0 | 0.00 | 0.00 | 0.00 | 46 | 1025.8 |
| 20260508054052 | 72 | 115 | 7.0 | 15.0 | 0.00 | 0.00 | 0.00 | 46 | 1026.0 |
| 20260508053553 | 72 | 53 | 7.0 | 15.0 | 0.00 | 0.00 | 0.00 | 46 | 1025.9 |
| 20260508053056 | 72 | 40 | 5.0 | 13.0 | 0.00 | 0.00 | 0.00 | 46 | 1025.9 |
| 20260508052553 | 71 | 75 | 6.0 | 16.0 | 0.00 | 0.00 | 0.00 | 47 | 1026.0 |
| 20260508052053 | 71 | 124 | 5.0 | 16.0 | 0.00 | 0.00 | 0.00 | 48 | 1026.1 |
| 20260508051556 | 71 | 98 | 9.0 | 16.0 | 0.00 | 0.00 | 0.00 | 48 | 1026.0 |
| 20260508051053 | 71 | 83 | 8.0 | 16.0 | 0.00 | 0.00 | 0.00 | 48 | 1026.2 |
| 20260508050553 | 71 | 65 | 4.0 | 13.0 | 0.00 | 0.00 | 0.00 | 48 | 1026.2 |
| 20260508050058 | 71 | 101 | 7.0 | 13.0 | 0.00 | 0.00 | 0.00 | 48 | 1026.4 |
| 20260508045552 | 71 | 111 | 6.0 | 13.0 | 0.00 | 0.00 | 0.00 | 48 | 1026.5 |
| 20260508045052 | 71 | 84 | 7.0 | 13.0 | 0.00 | 0.00 | 0.00 | 48 | 1026.5 |
| 20260508044554 | 71 | 88 | 5.0 | 15.0 | 0.00 | 0.00 | 0.00 | 48 | 1026.7 |
| 20260508044054 | 70 | 121 | 5.0 | 15.0 | 0.00 | 0.00 | 0.00 | 49 | 1026.6 |
| 20260508043553 | 70 | 51 | 9.0 | 15.0 | 0.00 | 0.00 | 0.00 | 48 | 1026.9 |
| 20260508043100 | 70 | 65 | 8.0 | 13.0 | 0.00 | 0.00 | 0.00 | 47 | 1027.0 |
| 20260508042553 | 70 | 40 | 4.0 | 12.0 | 0.00 | 0.00 | 0.00 | 49 | 1027.0 |
| 20260508042057 | 70 | 57 | 5.0 | 13.0 | 0.00 | 0.00 | 0.00 | 49 | 1027.0 |
| 20260508041559 | 70 | 67 | 5.0 | 13.0 | 0.00 | 0.00 | 0.00 | 49 | 1027.2 |
| 20260508041053 | 70 | 30 | 7.0 | 13.0 | 0.00 | 0.00 | 0.00 | 49 | 1027.3 |
| 20260508040553 | 70 | 101 | 6.0 | 12.0 | 0.00 | 0.00 | 0.00 | 50 | 1027.3 |
| 20260508040056 | 69 | 61 | 5.0 | 13.0 | 0.00 | 0.00 | 0.00 | 51 | 1027.5 |
| 20260508035553 | 69 | 119 | 5.0 | 16.0 | 0.00 | 0.00 | 0.00 | 52 | 1027.6 |
| 20260508035053 | 69 | 22 | 8.0 | 16.0 | 0.00 | 0.00 | 0.00 | 51 | 1027.9 |
| 20260508034604 | 69 | 78 | 6.0 | 11.0 | 0.00 | 0.00 | 0.00 | 51 | 1028.0 |
| 20260508034053 | 69 | 9 | 5.0 | 11.0 | 0.00 | 0.00 | 0.00 | 52 | 1028.0 |
| 20260508033552 | 68 | 19 | 5.0 | 14.0 | 0.00 | 0.00 | 0.00 | 53 | 1028.1 |
| 20260508033057 | 68 | 65 | 7.0 | 14.0 | 0.00 | 0.00 | 0.00 | 52 | 1028.2 |
| 20260508032553 | 68 | 33 | 7.0 | 14.0 | 0.00 | 0.00 | 0.00 | 52 | 1028.3 |
| 20260508032053 | 68 | 19 | 8.0 | 14.0 | 0.00 | 0.00 | 0.00 | 52 | 1028.3 |
| 20260508031559 | 68 | 41 | 7.0 | 16.0 | 0.00 | 0.00 | 0.00 | 52 | 1028.4 |
| 20260508031053 | 68 | 51 | 6.0 | 16.0 | 0.00 | 0.00 | 0.00 | 53 | 1028.5 |
| 20260508030553 | 67 | 46 | 8.0 | 16.0 | 0.00 | 0.00 | 0.00 | 53 | 1028.5 |
| 20260508030100 | 67 | 24 | 7.0 | 16.0 | 0.00 | 0.00 | 0.00 | 53 | 1028.6 |
| 20260508025553 | 67 | 103 | 7.0 | 16.0 | 0.00 | 0.00 | 0.00 | 53 | 1028.6 |
| 20260508025053 | 67 | 72 | 7.0 | 16.0 | 0.00 | 0.00 | 0.00 | 53 | 1028.7 |
| 20260508024554 | 67 | 76 | 8.0 | 16.0 | 0.00 | 0.00 | 0.00 | 52 | 1028.8 |
| 20260508024053 | 67 | 9 | 9.0 | 16.0 | 0.00 | 0.00 | 0.00 | 52 | 1028.9 |
| 20260508023552 | 67 | 46 | 9.0 | 16.0 | 0.00 | 0.00 | 0.00 | 52 | 1028.8 |
| 20260508023057 | 67 | 43 | 9.0 | 14.0 | 0.00 | 0.00 | 0.00 | 52 | 1028.8 |
| 20260508022552 | 67 | 29 | 6.0 | 15.0 | 0.00 | 0.00 | 0.00 | 53 | 1028.7 |
| 20260508022053 | 66 | 10 | 7.0 | 15.0 | 0.00 | 0.00 | 0.00 | 53 | 1028.8 |
| 20260508021554 | 66 | 96 | 7.0 | 15.0 | 0.00 | 0.00 | 0.00 | 53 | 1028.8 |
| 20260508021052 | 66 | 53 | 8.0 | 15.0 | 0.00 | 0.00 | 0.00 | 53 | 1028.9 |
| 20260508020557 | 66 | 66 | 7.0 | 14.0 | 0.00 | 0.00 | 0.00 | 54 | 1028.9 |
| 20260508020052 | 66 | 121 | 6.0 | 12.0 | 0.00 | 0.00 | 0.00 | 55 | 1028.9 |
| 20260508015553 | 65 | 71 | 8.0 | 12.0 | 0.00 | 0.00 | 0.00 | 55 | 1029.0 |
| 20260508015053 | 65 | 54 | 4.0 | 11.0 | 0.00 | 0.00 | 0.00 | 56 | 1029.2 |
| 20260508014556 | 64 | 68 | 3.0 | 9.0 | 0.00 | 0.00 | 0.00 | 58 | 1029.4 |
| 20260508014055 | 64 | 82 | 5.0 | 9.0 | 0.00 | 0.00 | 0.00 | 58 | 1029.3 |
| 20260508013552 | 64 | 113 | 3.0 | 13.0 | 0.00 | 0.00 | 0.00 | 58 | 1029.4 |
| 20260508013058 | 63 | 81 | 5.0 | 13.0 | 0.00 | 0.00 | 0.00 | 59 | 1029.5 |
| 20260508012553 | 63 | 98 | 6.0 | 12.0 | 0.00 | 0.00 | 0.00 | 59 | 1029.6 |
| 20260508012053 | 63 | 44 | 5.0 | 12.0 | 0.00 | 0.00 | 0.00 | 60 | 1029.6 |
| 20260508011552 | 63 | 42 | 6.0 | 12.0 | 0.00 | 0.00 | 0.00 | 60 | 1029.7 |
| 20260508011053 | 62 | 54 | 4.0 | 11.0 | 0.00 | 0.00 | 0.00 | 61 | 1029.7 |
| 20260508010554 | 62 | 87 | 4.0 | 11.0 | 0.00 | 0.00 | 0.00 | 61 | 1029.8 |
| 20260508010054 | 62 | 48 | 4.0 | 10.0 | 0.00 | 0.00 | 0.00 | 61 | 1029.8 |
| 20260508005552 | 62 | 86 | 4.0 | 10.0 | 0.00 | 0.00 | 0.00 | 61 | 1029.8 |
| 20260508005053 | 62 | 86 | 3.0 | 9.0 | 0.00 | 0.00 | 0.00 | 62 | 1030.0 |
| 20260508004555 | 61 | 60 | 5.0 | 9.0 | 0.00 | 0.00 | 0.00 | 62 | 1029.9 |
| 20260508004052 | 61 | 94 | 3.0 | 9.0 | 0.00 | 0.00 | 0.00 | 63 | 1030.0 |
| 20260508003553 | 61 | 90 | 4.0 | 9.0 | 0.00 | 0.00 | 0.00 | 63 | 1029.9 |
| 20260508003105 | 61 | 66 | 3.0 | 11.0 | 0.00 | 0.00 | 0.00 | 63 | 1029.9 |